Botna, Iowa
Current Conditions -  °F | °C
As of 8:15 AM on Friday 19 Dec 2014 (Local Time) from KDNS Reporting Station
Haze Haze  
Wind Chill: 23°   Ceiling: 700
Heat Index: 30°   Visibility: 4mi
Dew Point: 30°   Wind: 7mph
Humidity: 100%   Direction: 180°S
Pressure: 30.2"   Gusts: NA
Location:  41.9078°N, 95.2666°W
Report Text: KDNS 191415Z AUTO 18006KT 4SM BR OVC007 M01/M01 A3020 RMK AO2
Loading
Personal Weather Stations






























Interactive Weather Map New forecast layout! Learn more

10-Day Weather Forecast

Advertisements
Track Severe Weather on mobile